Home   Weather   Glasgow   Past weeks
Flag for United Kingdom

Past Weather in Glasgow, Scotland, United Kingdom — July 2019

Now
57 °F

Light rain. Cloudy.


Feels Like: 54 °F
Forecast: 61 / 55 °F
Wind: 13 mph from Northeast

Location: Glasgow Airport

Current Time: Sep 22, 2019 at 1:19:24 pm

Latest Report: Sep 22, 2019 at 12:20 pm


Visibility: 4 mi

Pressure: 29.59 "Hg

Humidity: 94%

Dew Point: 55 °F

Location of GlasgowLocation

July 2019 Weather in Glasgow — Graph

°F

High & Low Weather Summary for July 2019

 TemperatureHumidityPressure
High84 °F (Jul 25, 1:20 pm)100% (Jul 1, 2:50 am)30.39 "Hg (Jul 1, 2:50 am)
Low41 °F (Jul 8, 3:50 am)43% (Jul 7, 4:50 pm)29.47 "Hg (Jul 20, 2:20 am)
Average61 °F81%29.94 "Hg
* Reported Jul 1 12:20 am — Jul 31 11:50 pm, Glasgow. Weather by CustomWeather, © 2019

Note: Actual official high and low records may vary slightly from our data, if they occured in-between our weather recording intervals... More about our weather records

Advertising

Glasgow Weather History for July 1, 2019

Scroll right to see more
 ConditionsComfort  
Time TempWeatherWind HumidityBarometerVisibility
12:20 am
Mon, Jul 1
55 °FLight rain. Passing clouds.16 mph88%29.80 "HgN/A
12:50 am54 °FLight rain. Partly cloudy.17 mph94%29.80 "HgN/A
1:20 am54 °FLight rain. Partly cloudy.18 mph94%29.80 "HgN/A
1:50 am55 °FLight rain. Mostly cloudy.20 mph88%29.80 "Hg6 mi
2:20 am55 °FLight rain. Mostly cloudy.18 mph88%29.80 "HgN/A
2:50 am54 °FMostly cloudy.17 mph100%29.80 "Hg5 mi
3:20 am55 °FLight rain. Overcast.16 mph94%29.80 "HgN/A
3:50 am55 °FLight rain. Mostly cloudy.13 mph94%29.80 "HgN/A
4:20 am55 °FPassing clouds.13 mph94%29.80 "HgN/A
4:50 am55 °FPartly sunny.10 mph94%29.83 "HgN/A
5:20 am55 °FBroken clouds.12 mph94%29.83 "HgN/A
5:50 am55 °FBroken clouds.13 mph94%29.83 "HgN/A
6:20 am55 °FLight rain. Broken clouds.12 mph94%29.83 "HgN/A
6:50 am55 °FMostly cloudy.12 mph94%29.86 "HgN/A
7:20 am57 °FMostly cloudy.14 mph88%29.86 "HgN/A
7:50 am55 °FPartly sunny.16 mph94%29.89 "HgN/A
8:20 am57 °FLight rain. Broken clouds.17 mph88%29.89 "HgN/A
8:50 am59 °FScattered clouds.17 mph82%29.92 "HgN/A
9:20 am59 °FBroken clouds.17 mph77%29.92 "HgN/A
9:50 am59 °FPartly sunny.20 mph77%29.92 "HgN/A
10:20 am59 °FPartly sunny.14 mph77%29.95 "HgN/A
10:50 am61 °FPartly sunny.17 mph72%29.95 "HgN/A
11:20 am61 °FPartly sunny.18 mph68%29.98 "HgN/A
11:50 am61 °FPartly sunny.17 mph68%29.98 "HgN/A
12:20 pm61 °FPartly sunny.18 mph68%30.01 "HgN/A
12:50 pm61 °FPassing clouds.20 mph63%30.04 "HgN/A
1:20 pm61 °FPartly sunny.18 mph63%30.04 "HgN/A
1:50 pm61 °FBroken clouds.17 mph59%30.07 "HgN/A
2:20 pm61 °FBroken clouds.20 mph63%30.07 "HgN/A
2:50 pm61 °FPassing clouds.21 mph63%30.09 "HgN/A
3:20 pm63 °FPassing clouds.20 mph56%30.09 "HgN/A
3:50 pm63 °FScattered clouds.22 mph59%30.09 "HgN/A
4:20 pm63 °FMild.22 mph56%30.12 "HgN/A
4:50 pm63 °FMild.22 mph56%30.12 "HgN/A
5:20 pm61 °FRefreshingly cool.22 mph59%30.12 "HgN/A
5:50 pm61 °FRefreshingly cool.21 mph59%30.15 "HgN/A
6:20 pm61 °FPassing clouds.18 mph59%30.15 "HgN/A
6:50 pm61 °FPartly sunny.13 mph63%30.15 "HgN/A
7:20 pm59 °FScattered clouds.16 mph68%30.18 "HgN/A
7:50 pm57 °FPassing clouds.9 mph77%30.18 "HgN/A
8:20 pm55 °FCool.10 mph82%30.18 "HgN/A
8:50 pm55 °FPassing clouds.8 mph82%30.18 "HgN/A
9:20 pm55 °FPassing clouds.9 mph82%30.18 "HgN/A
9:50 pm54 °FCool.10 mph82%30.21 "HgN/A
10:20 pm54 °FCool.9 mph82%30.21 "HgN/A
10:50 pm54 °FPassing clouds.8 mph82%30.21 "HgN/A
11:20 pm54 °FCool.7 mph82%30.21 "HgN/A
11:50 pm54 °FCool.8 mph82%30.21 "HgN/A
Weather by CustomWeather, © 2019

See weather overview